DW7126 Lourinha PT current weather conditions

sailwx.info

Wind from 258 at 7 knots gusting 11

Air temperature 18.9° C
Dewpoint 17.7° C

Last reported at 2014-Aug-02 07:50 UTC.
Time now 2014-Aug-02 08:46 UTC

Location: N 39°14' W 009°18'.
View on Google Maps.

See reports from other nearby stations

  
Tides and Currents Weather Stations Pressure Air Temp Water Temp Dewpoint Dewpoint Depression Visibility Wind Speed Wind Dir Waves Ship Positions
date/time (UTC)wind fromknots sea level pressurealtimeterstation pressurevisibilityair tempwater tempwave heightnotes
2014-Aug-02 07:50 258 7 gusting 11 18.9
2014-Aug-02 07:45 248 7 gusting 12 18.9
2014-Aug-02 07:40 264 9 gusting 12 18.9
2014-Aug-02 07:35 248 7 gusting 11 18.9
2014-Aug-02 07:30 235 7 gusting 11 18.9
2014-Aug-02 07:25 261 8 gusting 12 18.9
2014-Aug-02 07:20 250 8 gusting 12 18.3
2014-Aug-02 07:15 245 6 gusting 10 18.9
2014-Aug-02 07:10 259 5 gusting 9 18.9
2014-Aug-02 07:05 241 6 gusting 9 18.3
2014-Aug-02 07:00 254 6 gusting 10 18.3
2014-Aug-02 06:55 250 6 gusting 10 18.3
2014-Aug-02 06:50 246 6 gusting 13 18.3
2014-Aug-02 06:45 252 8 gusting 13 18.3
2014-Aug-02 06:40 269 8 gusting 12 18.3
2014-Aug-02 06:35 248 8 gusting 10 18.3
2014-Aug-02 06:30 261 7 gusting 9 18.3
2014-Aug-02 06:25 250 6 gusting 10 18.3
2014-Aug-02 06:20 248 7 gusting 10 18.3
2014-Aug-02 06:15 249 7 gusting 12 18.3
2014-Aug-02 06:10 254 8 gusting 11 18.3
2014-Aug-02 06:05 260 8 gusting 11 18.3
2014-Aug-02 06:00 243 8 gusting 13 18.3
2014-Aug-02 05:55 248 8 gusting 13 18.3
2014-Aug-02 05:50 259 7 gusting 10 17.8
2014-Aug-02 05:45 249 5 gusting 7 17.8
2014-Aug-02 04:50 236 5 gusting 6 17.8
2014-Aug-02 04:45 245 4 gusting 6 17.8
2014-Aug-02 04:40 246 4 gusting 5 17.8
2014-Aug-02 04:35 243 3 gusting 6 17.8
2014-Aug-02 04:30 246 4 gusting 6 17.8
2014-Aug-02 04:25 239 3 gusting 6 17.8
2014-Aug-02 04:20 249 3 gusting 6 17.8
2014-Aug-02 04:15 245 3 gusting 6 17.8
2014-Aug-02 04:10 243 4 gusting 6 17.8
2014-Aug-02 04:05 253 4 gusting 6 17.8
2014-Aug-02 04:00 254 5 gusting 6 17.8
2014-Aug-02 03:55 243 5 gusting 6 17.8
2014-Aug-02 03:50 244 3 gusting 6 17.2
2014-Aug-02 03:45 246 4 gusting 6 17.8
2014-Aug-02 03:40 247 3 gusting 5 17.8
2014-Aug-02 03:35 244 3 gusting 4 17.2
2014-Aug-02 03:30 243 3 gusting 4 17.2
2014-Aug-02 03:25 246 3 gusting 5 17.2
2014-Aug-02 03:20 245 3 gusting 5 17.2
2014-Aug-02 03:15 247 2 gusting 4 17.2
2014-Aug-02 03:10 248 3 gusting 5 17.2
2014-Aug-02 03:05 252 3 gusting 5 17.8
2014-Aug-02 03:00 248 2 gusting 4 17.8
2014-Aug-02 02:55 248 2 gusting 3 17.8
2014-Aug-02 02:50 248 0 gusting 5 17.8
2014-Aug-02 02:45 248 2 gusting 6 17.8
2014-Aug-02 02:40 261 3 gusting 7 17.8
2014-Aug-02 02:35 247 5 gusting 7 17.8
2014-Aug-02 02:30 250 5 gusting 6 17.8
2014-Aug-02 02:25 262 5 gusting 6 17.8
2014-Aug-02 02:20 273 4 gusting 7 17.8
2014-Aug-02 02:15 265 5 gusting 7 17.8
2014-Aug-02 02:10 252 5 gusting 8 17.8
2014-Aug-02 02:05 269 6 gusting 9 17.8
2014-Aug-02 02:00 269 6 gusting 9 17.8
2014-Aug-02 01:55 247 6 gusting 9 17.8
2014-Aug-02 01:50 254 6 gusting 8 17.8
2014-Aug-02 01:45 255 5 gusting 6 17.8
2014-Aug-02 01:40 270 4 gusting 6 17.8
2014-Aug-02 01:35 266 3 gusting 5 17.8
2014-Aug-02 01:30 263 3 gusting 6 17.8
2014-Aug-02 01:25 268 4 gusting 6 17.8
2014-Aug-02 01:20 253 5 gusting 8 17.8
2014-Aug-02 01:15 281 5 gusting 8 17.8
2014-Aug-02 01:10 260 5 gusting 8 17.8
2014-Aug-02 01:05 265 4 gusting 7 17.8
2014-Aug-02 01:00 263 5 gusting 6 17.8
2014-Aug-02 00:55 263 4 gusting 7 17.8
2014-Aug-02 00:50 268 4 gusting 7 17.8
2014-Aug-02 00:45 265 5 gusting 7 17.8
2014-Aug-02 00:40 266 5 gusting 7 17.8
2014-Aug-02 00:35 260 4 gusting 6 17.8
2014-Aug-02 00:30 269 4 gusting 6 17.8
2014-Aug-02 00:25 275 3 gusting 6 17.8
2014-Aug-02 00:20 278 3 gusting 6 18.3
2014-Aug-02 00:15 285 4 gusting 6 18.3
2014-Aug-02 00:10 267 3 gusting 7 18.3
2014-Aug-02 00:05 274 6 gusting 8 18.3
2014-Aug-02 00:00 271 2 gusting 6 18.3
2014-Aug-01 23:55 284 2 gusting 4 18.3
2014-Aug-01 23:50 302 1 gusting 3 17.8
2014-Aug-01 23:45 328 0 gusting 3 17.8
2014-Aug-01 23:40 331 0 gusting 4 17.8
2014-Aug-01 23:35 332 3 gusting 4 17.8
2014-Aug-01 23:30 337 2 gusting 6 17.8
2014-Aug-01 23:25 305 3 gusting 6 17.8
2014-Aug-01 23:20 298 4 gusting 6 17.8
2014-Aug-01 23:15 299 3 gusting 7 17.8
2014-Aug-01 23:10 285 4 gusting 7 17.8
2014-Aug-01 23:05 326 3 gusting 6 17.8
2014-Aug-01 23:00 286 3 gusting 6 17.8
2014-Aug-01 22:55 302 3 gusting 6 17.8
2014-Aug-01 22:50 299 4 gusting 8 17.8
2014-Aug-01 22:45 284 5 gusting 8 17.8
2014-Aug-01 22:40 286 3 gusting 7 17.8
2014-Aug-01 22:35 280 4 gusting 7 17.8
2014-Aug-01 22:30 283 4 gusting 8 17.8
2014-Aug-01 22:25 295 4 gusting 7 17.8
2014-Aug-01 22:20 274 5 gusting 7 18.3
2014-Aug-01 22:15 271 4 gusting 7 18.3
2014-Aug-01 22:10 274 5 gusting 8 18.3
2014-Aug-01 22:05 284 6 gusting 8 18.3
2014-Aug-01 22:00 272 3 gusting 9 18.3
2014-Aug-01 21:55 265 5 gusting 9 18.3
2014-Aug-01 21:50 284 5 gusting 6 18.3
2014-Aug-01 21:45 281 3 gusting 6 18.3
2014-Aug-01 21:40 263 3 gusting 6 18.3
2014-Aug-01 21:35 281 5 gusting 6 18.3
2014-Aug-01 21:30 277 3 gusting 6 18.3
2014-Aug-01 21:25 280 4 gusting 6 18.3
2014-Aug-01 21:20 290 4 gusting 6 18.3
2014-Aug-01 21:15 268 4 gusting 6 18.3
2014-Aug-01 21:10 274 4 gusting 7 18.3
2014-Aug-01 21:05 276 5 gusting 7 18.3
2014-Aug-01 21:00 288 2 gusting 6 18.3
2014-Aug-01 20:55 294 4 gusting 7 18.3
2014-Aug-01 20:50 284 4 gusting 7 18.3
2014-Aug-01 20:45 275 2 gusting 6 18.3
2014-Aug-01 20:40 296 4 gusting 7 18.3
2014-Aug-01 20:35 315 2 gusting 8 18.9
2014-Aug-01 20:30 282 6 gusting 8 18.9
2014-Aug-01 20:25 291 6 gusting 8 18.9
2014-Aug-01 20:20 301 5 gusting 8 18.9
2014-Aug-01 20:15 286 5 gusting 8 18.9
2014-Aug-01 20:10 291 6 gusting 8 18.9
2014-Aug-01 20:05 291 4 gusting 8 18.9
2014-Aug-01 20:00 308 4 gusting 8 18.3
2014-Aug-01 19:55 295 4 gusting 7 18.3
2014-Aug-01 19:50 315 4 gusting 7 18.3
2014-Aug-01 19:45 292 3 gusting 9 18.9
2014-Aug-01 19:40 284 4 gusting 9 18.9
2014-Aug-01 19:35 304 5 gusting 10 18.9
2014-Aug-01 19:30 297 6 gusting 10 18.9
2014-Aug-01 19:25 294 6 gusting 10 19.4
2014-Aug-01 19:20 296 6 gusting 8 19.4
2014-Aug-01 19:15 316 5 gusting 8 19.4
2014-Aug-01 19:10 296 6 gusting 8 19.4
2014-Aug-01 19:05 302 6 gusting 8 19.4
2014-Aug-01 19:00 287 5 gusting 7 20.0
2014-Aug-01 18:55 289 5 gusting 9 20.0
2014-Aug-01 18:50 309 6 gusting 9 20.0
2014-Aug-01 18:45 308 4 gusting 10 19.4
2014-Aug-01 18:40 310 6 gusting 10 19.4
2014-Aug-01 18:35 294 6 gusting 11 20.0
2014-Aug-01 18:30 331 5 gusting 11 20.6
2014-Aug-01 18:25 325 8 gusting 11 20.6
2014-Aug-01 18:20 308 7 gusting 11 20.6
2014-Aug-01 18:15 339 7 gusting 11 20.6
2014-Aug-01 18:10 331 6 gusting 13 20.6
2014-Aug-01 18:05 306 8 gusting 13 20.6
2014-Aug-01 18:00 327 6 gusting 12 21.1
2014-Aug-01 17:55 319 7 gusting 13 21.1
2014-Aug-01 17:50 305 8 gusting 13 21.1
2014-Aug-01 17:45 278 6 gusting 11 21.1
2014-Aug-01 17:40 338 7 gusting 12 20.6
2014-Aug-01 17:35 336 7 gusting 12 20.6
2014-Aug-01 17:30 317 6 gusting 12 21.1
2014-Aug-01 17:25 321 6 gusting 11 21.1
2014-Aug-01 17:20 304 5 gusting 11 20.6
2014-Aug-01 17:15 280 7 gusting 11 20.0
2014-Aug-01 17:10 293 7 gusting 11 20.0
2014-Aug-01 17:05 315 5 gusting 9 20.0
2014-Aug-01 17:00 290 5 gusting 8 20.0
2014-Aug-01 16:55 294 6 gusting 8 20.0
2014-Aug-01 16:50 280 5 gusting 9 20.0
2014-Aug-01 16:45 317 6 gusting 11 20.0
2014-Aug-01 16:40 326 6 gusting 11 20.0
2014-Aug-01 16:35 348 8 gusting 13 20.0
2014-Aug-01 16:30 309 9 gusting 13 20.0
2014-Aug-01 16:25 311 6 gusting 12 20.0
2014-Aug-01 16:20 300 7 gusting 10 20.0
2014-Aug-01 16:15 319 6 gusting 12 20.6
2014-Aug-01 16:10 323 7 gusting 13 20.6
2014-Aug-01 16:05 319 6 gusting 13 20.0
2014-Aug-01 16:00 323 8 gusting 12 20.0
2014-Aug-01 15:55 311 7 gusting 12 20.6
2014-Aug-01 15:50 355 6 gusting 12 20.6
2014-Aug-01 15:45 360 8 gusting 14 20.6
2014-Aug-01 15:40 302 9 gusting 14 20.6
2014-Aug-01 15:35 307 9 gusting 14 20.6
2014-Aug-01 15:30 328 8 gusting 13 20.6
2014-Aug-01 15:25 327 8 gusting 13 20.6
2014-Aug-01 15:20 327 7 gusting 12 20.6
2014-Aug-01 15:15 340 7 gusting 13 20.6
2014-Aug-01 15:10 311 9 gusting 13 20.6
2014-Aug-01 15:05 346 8 gusting 13 20.6
2014-Aug-01 15:00 323 8 gusting 12 20.6
2014-Aug-01 14:55 315 8 gusting 12 20.6
2014-Aug-01 14:50 330 6 gusting 11 20.6
2014-Aug-01 14:45 345 8 gusting 11 20.6
2014-Aug-01 14:40 315 7 gusting 12 20.6
2014-Aug-01 14:35 323 8 gusting 12 20.6
2014-Aug-01 14:30 325 8 gusting 13 20.6
2014-Aug-01 14:25 350 8 gusting 14 20.6
2014-Aug-01 14:20 302 9 gusting 14 21.1
2014-Aug-01 14:15 323 7 gusting 12 20.6
2014-Aug-01 14:10 317 7 gusting 13 20.6
2014-Aug-01 14:05 301 9 gusting 15 20.6
2014-Aug-01 14:00 333 7 gusting 16 21.1
2014-Aug-01 13:55 323 10 gusting 16 21.1
2014-Aug-01 13:50 327 10 gusting 14 21.7
2014-Aug-01 13:45 299 10 gusting 15 21.1
2014-Aug-01 13:40 305 11 gusting 15 21.7
2014-Aug-01 13:35 321 7 gusting 13 21.7
2014-Aug-01 13:30 305 9 gusting 13 21.7
2014-Aug-01 13:25 316 8 gusting 13 21.7
2014-Aug-01 13:20 310 8 gusting 13 21.7
2014-Aug-01 13:15 321 6 gusting 13 21.7
2014-Aug-01 13:10 331 9 gusting 13 21.7
2014-Aug-01 13:05 319 9 gusting 14 21.1
2014-Aug-01 13:00 309 9 gusting 15 21.1
2014-Aug-01 12:55 306 11 gusting 15 21.1
2014-Aug-01 12:50 338 7 gusting 15 21.1
2014-Aug-01 12:45 337 10 gusting 15 21.1
2014-Aug-01 12:40 318 11 gusting 15 21.1
2014-Aug-01 12:35 346 9 gusting 14 21.1
2014-Aug-01 12:30 327 10 gusting 14 21.1
2014-Aug-01 12:25 342 9 gusting 14 21.1
2014-Aug-01 12:20 325 10 gusting 16 21.1
2014-Aug-01 12:15 350 8 gusting 16 20.6
2014-Aug-01 12:10 332 11 gusting 15 21.1
2014-Aug-01 12:05 334 10 gusting 16 21.1
2014-Aug-01 12:00 291 9 gusting 18 20.6
2014-Aug-01 11:55 333 9 gusting 18 20.6
2014-Aug-01 11:50 335 9 gusting 13 20.6
2014-Aug-01 11:45 325 10 gusting 13 20.6
2014-Aug-01 11:40 336 10 gusting 13 20.6
2014-Aug-01 11:35 291 9 gusting 13 20.6
2014-Aug-01 11:30 317 9 gusting 13 21.1
2014-Aug-01 11:25 321 7 gusting 13 20.6
2014-Aug-01 11:20 291 9 gusting 13 20.6
2014-Aug-01 11:15 308 9 gusting 13 20.6
2014-Aug-01 11:10 300 7 gusting 14 20.6
2014-Aug-01 11:05 309 9 gusting 14 20.6
2014-Aug-01 11:00 355 6 gusting 14 20.6
2014-Aug-01 10:55 344 10 gusting 14 20.6
2014-Aug-01 10:50 340 8 gusting 13 20.6
2014-Aug-01 10:45 340 8 gusting 15 20.6
2014-Aug-01 10:40 331 9 gusting 14 20.6
2014-Aug-01 10:35 312 8 gusting 14 20.0
2014-Aug-01 10:30 318 8 gusting 15 20.0
2014-Aug-01 10:25 314 8 gusting 13 20.0
2014-Aug-01 10:20 336 7 gusting 13 19.4
2014-Aug-01 10:15 296 8 gusting 13 20.0
2014-Aug-01 10:10 355 6 gusting 12 20.0
2014-Aug-01 10:05 309 6 gusting 12 19.4
2014-Aug-01 10:00 331 7 gusting 13 19.4
2014-Aug-01 09:55 331 9 gusting 13 20.0
2014-Aug-01 09:50 309 9 gusting 13 19.4
2014-Aug-01 09:45 324 6 gusting 13 19.4
2014-Aug-01 09:40 317 7 gusting 13 19.4
2014-Aug-01 09:35 306 7 gusting 13 19.4
2014-Aug-01 09:30 339 6 gusting 13 19.4
2014-Aug-01 09:25 351 7 gusting 13 19.4
2014-Aug-01 09:20 307 8 gusting 13 19.4
2014-Aug-01 09:15 355 7 gusting 13 19.4
2014-Aug-01 09:10 325 9 gusting 14 19.4
2014-Aug-01 09:05 304 7 gusting 14 19.4
2014-Aug-01 09:00 318 9 gusting 14 19.4
2014-Aug-01 08:55 311 7 gusting 14 19.4
2014-Aug-01 08:50 308 8 gusting 13 19.4
2014-Aug-01 08:45 336 7 gusting 13 19.4
2014-Aug-01 08:40 340 8 gusting 14 19.4
2014-Aug-01 08:35 338 6 gusting 16 19.4
2014-Aug-01 08:30 326 8 gusting 16 19.4
2014-Aug-01 08:25 344 7 gusting 13 19.4
2014-Aug-01 08:20 336 8 gusting 13 19.4
2014-Aug-01 08:15 331 8 gusting 13 18.9
2014-Aug-01 08:10 317 7 gusting 13 18.9
2014-Aug-01 08:05 342 8 gusting 13 18.9
2014-Aug-01 08:00 347 10 gusting 13 18.9
2014-Aug-01 07:55 340 7 gusting 13 18.9
2014-Aug-01 07:50 344 6 gusting 13 18.9
2014-Aug-01 07:45 309 8 gusting 13 18.9
2014-Aug-01 07:40 340 6 gusting 13 18.9
2014-Aug-01 07:35 335 8 gusting 13 18.9
2014-Aug-01 07:30 315 6 gusting 13 18.9
2014-Aug-01 07:25 355 6 gusting 11 18.3
2014-Aug-01 07:20 337 6 gusting 12 18.3
2014-Aug-01 07:15 327 6 gusting 12 18.3
2014-Aug-01 07:10 339 8 gusting 11 18.3
2014-Aug-01 07:05 334 5 gusting 13 18.3
2014-Aug-01 07:00 323 6 gusting 13 18.3
2014-Aug-01 06:55 337 6 gusting 12 18.3
2014-Aug-01 06:50 348 6 gusting 13 18.3
2014-Aug-01 06:45 340 8 gusting 13 18.3
2014-Aug-01 06:40 288 6 gusting 12 18.3
2014-Aug-01 06:35 326 7 gusting 12 18.3
2014-Aug-01 06:30 342 6 gusting 12 18.3
2014-Aug-01 06:25 327 7 gusting 11 18.3
2014-Aug-01 00:05 337 3 gusting 7 18.9
2014-Aug-01 00:00 306 5 gusting 10 18.9
2014-Jul-31 23:55 317 6 gusting 10 18.9
2014-Jul-31 23:50 317 6 gusting 8 18.9
2014-Jul-31 23:45 278 4 gusting 7 18.9
2014-Jul-31 23:40 306 4 gusting 8 18.9
2014-Jul-31 23:35 290 6 gusting 8 18.9
2014-Jul-31 23:30 296 5 gusting 7 18.9
2014-Jul-31 23:25 315 3 gusting 7 18.9
2014-Jul-31 23:20 319 5 gusting 8 18.9
2014-Jul-31 23:15 310 5 gusting 8 18.9
2014-Jul-31 23:10 292 5 gusting 8 18.9
2014-Jul-31 23:05 292 3 gusting 6 18.9
2014-Jul-31 23:00 299 3 gusting 6 18.9
2014-Jul-31 22:55 269 3 gusting 6 18.9
2014-Jul-31 22:50 280 0 gusting 6 18.9
2014-Jul-31 22:45 281 3 gusting 6 18.9
2014-Jul-31 22:40 280 1 gusting 6 18.9
2014-Jul-31 22:35 286 2 gusting 5 18.9
2014-Jul-31 22:30 302 0 gusting 6 18.9
2014-Jul-31 22:25 282 4 gusting 6 18.9
2014-Jul-31 22:20 306 4 gusting 6 18.9
2014-Jul-31 22:15 290 2 gusting 6 18.9
2014-Jul-31 22:10 302 2 gusting 6 18.9
2014-Jul-31 22:05 313 3 gusting 6 18.9
2014-Jul-31 22:00 315 2 gusting 7 18.9
2014-Jul-31 21:55 300 5 gusting 7 18.9
2014-Jul-31 21:50 296 5 gusting 7 18.9
2014-Jul-31 21:45 311 3 gusting 6 18.9
2014-Jul-31 21:40 304 4 gusting 8 18.9
2014-Jul-31 21:35 296 4 gusting 9 18.9
2014-Jul-31 21:30 298 5 gusting 9 18.9
2014-Jul-31 21:25 338 5 gusting 9 18.9
2014-Jul-31 21:20 293 5 gusting 9 18.9
2014-Jul-31 21:15 298 4 gusting 8 18.9
2014-Jul-31 21:10 323 5 gusting 8 18.9
2014-Jul-31 21:05 360 6 gusting 8 18.9
2014-Jul-31 21:00 301 2 gusting 6 18.9
2014-Jul-31 20:55 291 3 gusting 6 18.9
2014-Jul-31 20:50 283 4 gusting 6 18.9
2014-Jul-31 20:45 294 1 gusting 8 18.9
2014-Jul-31 20:40 273 3 gusting 8 18.9
2014-Jul-31 20:35 271 4 gusting 9 18.9
2014-Jul-31 20:30 264 5 gusting 10 18.9
2014-Jul-31 20:25 265 6 gusting 10 18.9
2014-Jul-31 20:20 258 5 gusting 7 18.9
2014-Jul-31 20:15 273 6 gusting 7 18.9
2014-Jul-31 20:10 260 5 gusting 8 18.9
2014-Jul-31 20:05 265 6 gusting 8 19.4
2014-Jul-31 20:00 265 6 gusting 8 19.4
2014-Jul-31 19:55 265 5 gusting 8 19.4
2014-Jul-31 19:50 261 6 gusting 8 19.4
2014-Jul-31 19:45 261 6 gusting 8 19.4
2014-Jul-31 19:40 266 5 gusting 8 19.4
2014-Jul-31 19:35 253 6 gusting 8 19.4
2014-Jul-31 19:30 234 6 gusting 10 19.4
2014-Jul-31 19:25 265 6 gusting 10 19.4
2014-Jul-31 19:20 275 6 gusting 10 19.4
2014-Jul-31 19:15 286 4 gusting 7 19.4
2014-Jul-31 19:10 242 5 gusting 10 19.4
2014-Jul-31 19:05 258 6 gusting 11 19.4
2014-Jul-31 19:00 271 7 gusting 11 19.4
2014-Jul-31 18:55 360 6 gusting 10 19.4
2014-Jul-31 18:50 254 7 gusting 10 19.4
2014-Jul-31 18:45 243 7 gusting 12 20.0
2014-Jul-31 18:40 256 8 gusting 12 20.0
2014-Jul-31 18:35 248 9 gusting 13 20.0
2014-Jul-31 18:25 360 7 gusting 12 20.6
2014-Jul-31 18:20 244 9 gusting 12 20.6
2014-Jul-31 18:15 261 8 gusting 12 20.6
2014-Jul-31 18:10 256 9 gusting 13 20.6
2014-Jul-31 18:05 360 9 gusting 13 20.6
2014-Jul-31 18:00 360 11 gusting 14 20.6
2014-Jul-31 17:55 257 9 gusting 15 20.6
2014-Jul-31 17:50 279 10 gusting 15 20.6
2014-Jul-31 17:45 261 11 gusting 14 21.1
2014-Jul-31 17:40 360 11 gusting 13 21.1
2014-Jul-31 17:35 274 8 gusting 14 21.1
2014-Jul-31 17:30 270 12 gusting 14 21.1
2014-Jul-31 17:25 248 11 gusting 14 21.1
2014-Jul-31 17:20 251 10 gusting 14 21.7
2014-Jul-31 17:15 255 9 gusting 13 21.7
2014-Jul-31 17:10 238 10 gusting 14 21.7
2014-Jul-31 17:05 229 11 gusting 14 21.7
2014-Jul-31 17:00 245 9 gusting 13 21.7
2014-Jul-31 16:55 360 9 gusting 13 21.7
2014-Jul-31 16:50 259 10 gusting 14 21.7
2014-Jul-31 16:45 260 12 gusting 16 21.7
2014-Jul-31 16:40 249 12 gusting 15 21.7
2014-Jul-31 16:35 226 10 gusting 14 21.7
2014-Jul-31 16:30 247 9 gusting 15 22.2
2014-Jul-31 16:25 269 10 gusting 13 21.7
2014-Jul-31 16:20 279 8 gusting 14 22.2
2014-Jul-31 16:15 252 10 gusting 14 22.2
2014-Jul-31 16:10 298 10 gusting 17 22.2
2014-Jul-31 16:05 262 12 gusting 17 22.2
2014-Jul-31 16:00 263 12 gusting 18 22.2
2014-Jul-31 15:55 252 12 gusting 18 22.2
2014-Jul-31 15:50 257 10 gusting 18 22.2
2014-Jul-31 15:45 263 13 gusting 18 22.2
2014-Jul-31 15:40 250 11 gusting 18 22.2
2014-Jul-31 15:35 241 12 gusting 18 22.2
2014-Jul-31 15:30 238 12 gusting 19 22.2
2014-Jul-31 15:25 257 13 gusting 19 22.2
2014-Jul-31 15:20 360 11 gusting 18 22.2
2014-Jul-31 15:15 238 12 gusting 18 22.2
2014-Jul-31 15:10 261 14 gusting 18 22.2
2014-Jul-31 15:05 232 11 gusting 19 22.2
2014-Jul-31 15:00 250 15 gusting 19 22.2
2014-Jul-31 14:55 255 15 gusting 19 22.2
2014-Jul-31 14:50 254 13 gusting 19 22.2
2014-Jul-31 14:45 360 13 gusting 21 22.2
2014-Jul-31 14:40 360 13 gusting 21 22.2
2014-Jul-31 14:35 360 14 gusting 19 22.2
2014-Jul-31 14:30 259 14 gusting 19 22.2
2014-Jul-31 14:25 255 13 gusting 18 22.2
2014-Jul-31 14:20 250 13 gusting 19 22.8
2014-Jul-31 14:15 257 13 gusting 19 21.7
2014-Jul-31 14:10 246 13 gusting 20 22.2
2014-Jul-31 14:05 254 15 gusting 19 22.2
2014-Jul-31 14:00 238 12 gusting 18 22.8
2014-Jul-31 13:55 254 13 gusting 19 22.2
2014-Jul-31 13:50 252 15 gusting 19 22.8
2014-Jul-31 13:45 360 13 gusting 19 22.2
2014-Jul-31 13:40 255 14 gusting 20 21.7
2014-Jul-31 13:35 254 13 gusting 20 21.7
2014-Jul-31 13:30 251 12 gusting 19 21.7
2014-Jul-31 13:25 254 12 gusting 20 21.7
2014-Jul-31 13:20 252 14 gusting 22 21.7
2014-Jul-31 13:15 259 13 gusting 22 22.8
2014-Jul-31 13:10 221 13 gusting 20 22.2
2014-Jul-31 13:05 360 12 gusting 19 21.7
2014-Jul-31 13:00 232 13 gusting 21 21.7
2014-Jul-31 12:55 250 14 gusting 21 22.2
2014-Jul-31 12:50 360 11 gusting 19 22.2
2014-Jul-31 12:45 238 13 gusting 19 21.7
2014-Jul-31 12:40 237 13 gusting 18 21.7
2014-Jul-31 12:35 275 13 gusting 19 21.7
2014-Jul-31 12:30 267 13 gusting 19 21.7
2014-Jul-31 12:25 234 13 gusting 19 21.1
2014-Jul-31 12:20 229 13 gusting 19 21.7
2014-Jul-31 12:15 255 13 gusting 18 21.7
2014-Jul-31 12:10 229 14 gusting 19 21.1
2014-Jul-31 12:05 250 13 gusting 19 21.1
2014-Jul-31 12:00 254 11 gusting 18 21.1
2014-Jul-31 11:55 245 13 gusting 17 21.1
2014-Jul-31 11:50 258 12 gusting 17 20.6
2014-Jul-31 11:45 238 12 gusting 18 21.1
2014-Jul-31 11:40 251 13 gusting 18 20.6
2014-Jul-31 11:35 257 13 gusting 18 21.1
2014-Jul-31 11:30 245 12 gusting 17 21.1
2014-Jul-31 11:25 257 11 gusting 17 20.6
2014-Jul-31 11:20 254 14 gusting 17 20.6
2014-Jul-31 11:15 360 12 gusting 17 20.6
2014-Jul-31 11:10 240 10 gusting 16 20.6
2014-Jul-31 11:05 262 11 gusting 17 21.1
2014-Jul-31 11:00 240 13 gusting 17 20.6
2014-Jul-31 10:55 360 9 gusting 14 20.6
2014-Jul-31 10:50 250 10 gusting 14 20.6
2014-Jul-31 10:45 250 12 gusting 16 20.6
2014-Jul-31 10:40 250 12 gusting 16 20.6
2014-Jul-31 10:35 232 10 gusting 14 20.0
2014-Jul-31 10:30 259 9 gusting 14 20.0
2014-Jul-31 10:25 257 10 gusting 14 20.0
2014-Jul-31 10:20 257 10 gusting 13 20.0
2014-Jul-31 10:15 241 8 gusting 13 20.0
2014-Jul-31 10:10 254 10 gusting 13 20.6
2014-Jul-31 10:05 230 10 gusting 13 20.6
2014-Jul-31 10:00 251 7 gusting 12 20.6
2014-Jul-31 09:55 246 8 gusting 11 20.6
2014-Jul-31 09:50 211 4 gusting 6 20.6
2014-Jul-31 09:45 211 4 gusting 6 20.6
2014-Jul-31 09:40 223 4 gusting 11 20.0
2014-Jul-31 09:35 232 7 gusting 12 20.0
2014-Jul-31 09:30 205 6 gusting 12 20.0
2014-Jul-31 09:25 241 8 gusting 11 20.0
2014-Jul-31 09:20 223 6 gusting 12 20.0
2014-Jul-31 09:15 217 7 gusting 12 20.0
2014-Jul-31 09:10 200 8 gusting 13 20.0
2014-Jul-31 09:05 234 6 gusting 9 20.0
2014-Jul-31 09:00 207 5 gusting 9 20.0
2014-Jul-31 08:55 244 6 gusting 9 19.4
2014-Jul-31 08:50 191 6 gusting 10 19.4
2014-Jul-31 08:45 194 6 gusting 11 19.4
2014-Jul-31 08:40 234 6 gusting 12 19.4
2014-Jul-31 08:35 196 7 gusting 11 19.4
2014-Jul-31 08:30 238 6 gusting 11 19.4
2014-Jul-31 08:25 178 6 gusting 11 19.4
2014-Jul-31 08:20 360 5 gusting 7 19.4
2014-Jul-31 08:15 180 4 gusting 7 19.4
2014-Jul-31 08:10 204 6 gusting 7 19.4
2014-Jul-31 08:05 211 5 gusting 8 18.9
2014-Jul-31 08:00 360 4 gusting 7 19.4